Savannah, GA

12:33 PM EDT on August 20, 2017 (GMT -0400)
Savannah International

Weather History for KSAV - April, 2014

Change the Weather History Date:

Tuesday, April 1, 2014

  Actual Average Record
Temperature  
Mean Temperature 66 °F 62 °F  
Max Temperature 84 °F 74 °F 90 °F (1974)
Min Temperature 48 °F 51 °F 32 °F (1987)
Degree Days  
Heating Degree Days 0 4  
Month to date heating degree days 0 4  
Since 1 July heating degree days 1645 1731  
Cooling Degree Days 1 2  
Month to date cooling degree days 1 2  
Year to date cooling degree days 31 44  
Growing Degree Days 16 (Base 50)    
Moisture  
Dew Point 40 °F    
Average Humidity 48    
Maximum Humidity 80    
Minimum Humidity 16    
Precipitation  
Precipitation 0.00 in 0.12 in 4.06 in (1948)
Month to date precipitation 0.00 0.12  
Year to date precipitation 6.76 10.33  
Sea Level Pressure  
Sea Level Pressure 30.14 in    
Wind  
Wind Speed 6 mph (SSW)    
Max Wind Speed 17 mph    
Max Gust Speed 22 mph    
Visibility 10 miles    
Events      
T = Trace of Precipitation, MM = Missing Value Source: NWS Daily Summary

Daily Weather History Graph

Daily Weather History Graph

Search for Another Location

Airport or City:

Trip Planner

Search our weather history database for the weather conditions in past years. The results will help you decide how hot, cold, wet, or windy it might be!

Date:

Astronomy

Apr. 01, 2014 Rise Set
Actual Time 7:13 AM EDT 7:44 PM EDT
Civil Twilight 6:48 AM EDT 8:09 PM EDT
Nautical Twilight 6:19 AM EDT 8:38 PM EDT
Astronomical Twilight 5:50 AM EDT 9:07 PM EDT
Moon 8:21 AM EDT (4/1) 9:57 PM EDT (4/1)
Length of Visible Light 13h 20m
Length of Day
12h 31m
Waxing Crescent, 4% of the Moon is Illuminated
Apr 1
Waxing Crescent
Apr 7
First Quarter
Apr 15
Full
Apr 22
Last Quarter
Apr 29
New

Hourly Weather History & Observations

Time (EDT) Temp. Dew Point Humidity Pressure Visibility Wind Dir Wind Speed Gust Speed Precip Events Conditions
12:53 AM 57.0 °F 37.9 °F 49% 30.14 in 10.0 mi SW 3.5 mph - N/A   Clear
1:53 AM 54.0 °F 39.0 °F 57% 30.14 in 10.0 mi Calm Calm - N/A   Clear
2:53 AM 53.1 °F 39.9 °F 61% 30.13 in 10.0 mi Calm Calm - N/A   Clear
3:53 AM 52.0 °F 41.0 °F 66% 30.13 in 10.0 mi Calm Calm - N/A   Clear
4:53 AM 52.0 °F 42.1 °F 69% 30.12 in 10.0 mi Calm Calm - N/A   Clear
5:53 AM 51.1 °F 43.0 °F 74% 30.13 in 10.0 mi Calm Calm - N/A   Scattered Clouds
6:53 AM 50.0 °F 43.0 °F 77% 30.14 in 10.0 mi Calm Calm - N/A   Mostly Cloudy
7:53 AM 48.0 °F 43.0 °F 83% 30.17 in 10.0 mi Calm Calm - N/A   Mostly Cloudy
8:53 AM 54.0 °F 46.0 °F 75% 30.19 in 10.0 mi West 4.6 mph - N/A   Mostly Cloudy
9:53 AM 64.0 °F 44.1 °F 48% 30.19 in 10.0 mi West 5.8 mph - N/A   Mostly Cloudy
10:53 AM 73.0 °F 41.0 °F 31% 30.18 in 10.0 mi WSW 6.9 mph - N/A   Scattered Clouds
11:53 AM 78.1 °F 37.9 °F 24% 30.17 in 10.0 mi SSW 5.8 mph - N/A   Mostly Cloudy
12:53 PM 81.0 °F 36.0 °F 20% 30.16 in 10.0 mi West 6.9 mph - N/A   Scattered Clouds
1:53 PM 82.4 °F 32.0 °F 16% 30.14 in 10.0 mi Variable 4.6 mph - N/A   Scattered Clouds
2:53 PM 82.4 °F 35.6 °F 19% 30.12 in 6.0 mi SSW 9.2 mph - N/A   Smoke
3:53 PM 84.2 °F 39.2 °F 20% 30.09 in 7.0 mi SW 9.2 mph - N/A   Scattered Clouds
4:53 PM 80.6 °F 41.0 °F 24% 30.09 in 10.0 mi SSE 12.7 mph - N/A   Scattered Clouds
5:53 PM 78.8 °F 39.2 °F 24% 30.09 in 10.0 mi SSE 16.1 mph 21.9 mph N/A   Partly Cloudy
6:53 PM 75.2 °F 42.8 °F 31% 30.10 in 10.0 mi South 10.4 mph - N/A   Scattered Clouds
7:53 PM 70.0 °F 39.0 °F 32% 30.12 in 10.0 mi South 10.4 mph - N/A   Partly Cloudy
8:53 PM 66.9 °F 42.1 °F 40% 30.13 in 10.0 mi South 10.4 mph - N/A   Clear
9:53 PM 64.9 °F 44.1 °F 47% 30.14 in 10.0 mi South 9.2 mph - N/A   Clear
10:53 PM 63.0 °F 45.0 °F 52% 30.14 in 10.0 mi South 8.1 mph - N/A   Clear
11:53 PM 61.0 °F 45.0 °F 56% 30.14 in 10.0 mi South 5.8 mph - N/A   Clear